TimeGMT,TemperatureF,Dew PointF,Humidity,Sea Level PressureIn,VisibilityMPH,Wind Direction,Wind SpeedMPH,Gust SpeedMPH,PrecipitationIn,Events,Conditions,WindDirDegrees,DateUTC
12:00 AM,46,43,84,30.02,12,WSW,15.7,,,Rain,Light Rain Showers,250,2011-11-25 00:00:00
12:00 AM,46.4,42.8,87,30.01,6.2,WSW,16.1,-,N/A,,Mostly Cloudy,250,2011-11-25 00:00:00
12:30 AM,44.6,41.0,87,30.04,6.2,West,11.5,-,N/A,,Mostly Cloudy,270,2011-11-25 00:30:00
1:00 AM,44.6,42.8,93,30.04,6.2,West,15.0,-,N/A,Rain,Light Rain Showers,260,2011-11-25 01:00:00
1:30 AM,44.6,41.0,87,30.04,6.2,West,12.7,-,N/A,,Mostly Cloudy,260,2011-11-25 01:30:00
2:00 AM,42.8,39.2,87,30.06,6.2,West,12.7,-,N/A,,Scattered Clouds,280,2011-11-25 02:00:00
2:30 AM,42.8,41.0,93,30.06,6.2,SW,9.2,-,N/A,,Scattered Clouds,230,2011-11-25 02:30:00
3:00 AM,44.6,41.0,87,30.06,6.2,WSW,11.5,-,N/A,,Scattered Clouds,240,2011-11-25 03:00:00
3:30 AM,44.6,41.0,87,30.09,6.2,WSW,16.1,-,N/A,,Scattered Clouds,250,2011-11-25 03:30:00
4:00 AM,46.4,39.2,76,30.09,6.2,WSW,17.3,-,N/A,,Scattered Clouds,250,2011-11-25 04:00:00
4:30 AM,46.4,39.2,76,30.09,6.2,WSW,13.8,-,N/A,,Scattered Clouds,240,2011-11-25 04:30:00
5:00 AM,46.4,39.2,76,30.09,6.2,SSW,13.8,-,N/A,,Scattered Clouds,210,2011-11-25 05:00:00
5:30 AM,46.4,39.2,76,30.09,6.2,SW,18.4,-,N/A,,Scattered Clouds,220,2011-11-25 05:30:00
6:00 AM,44.6,39.2,81,30.09,6.2,SSW,15.0,-,N/A,,Scattered Clouds,210,2011-11-25 06:00:00
6:30 AM,46.4,41.0,81,30.09,5.0,SW,26.5,-,N/A,Rain,Light Rain Showers,230,2011-11-25 06:30:00
7:00 AM,46.4,41.0,81,30.09,5.0,SW,20.7,-,N/A,Rain,Light Rain Showers,220,2011-11-25 07:00:00
7:30 AM,46.4,42.8,87,30.09,4.3,SW,23.0,-,N/A,Rain,Light Rain Showers,230,2011-11-25 07:30:00
8:00 AM,46.4,42.8,87,30.12,6.2,WSW,18.4,-,N/A,Rain,Light Rain Showers,250,2011-11-25 08:00:00
8:30 AM,48.2,44.6,87,30.15,6.2,WSW,19.6,-,N/A,,Mostly Cloudy,240,2011-11-25 08:30:00
9:00 AM,48.2,44.6,87,30.15,3.7,WSW,18.4,-,N/A,Rain,Light Rain Showers,240,2011-11-25 09:00:00
9:30 AM,46.4,42.8,87,30.18,3.1,West,17.3,-,N/A,Rain,Light Rain Showers,270,2011-11-25 09:30:00
10:00 AM,46.4,42.8,87,30.18,6.2,WSW,24.2,-,N/A,,Mostly Cloudy,250,2011-11-25 10:00:00
10:30 AM,48.2,42.8,82,30.21,6.2,West,17.3,-,N/A,,Mostly Cloudy,270,2011-11-25 10:30:00
11:00 AM,48.2,42.8,82,30.21,6.2,West,15.0,-,N/A,,Mostly Cloudy,270,2011-11-25 11:00:00
11:30 AM,50.0,42.8,76,30.21,6.2,West,15.0,-,N/A,,Mostly Cloudy,260,2011-11-25 11:30:00
12:00 PM,49,41,66,30.25,9,West,15.7,,,,Partly Cloudy,270,2011-11-25 12:00:00
12:00 PM,48.2,41.0,76,30.24,6.2,West,16.1,-,N/A,,Scattered Clouds,270,2011-11-25 12:00:00
12:30 PM,50.0,42.8,76,30.24,6.2,West,13.8,-,N/A,,Partly Cloudy,260,2011-11-25 12:30:00
1:00 PM,50.0,42.8,76,30.24,6.2,West,12.7,-,N/A,,Partly Cloudy,270,2011-11-25 13:00:00
1:30 PM,51.8,41.0,67,30.24,6.2,West,18.4,-,N/A,,Partly Cloudy,260,2011-11-25 13:30:00
2:00 PM,50.0,42.8,76,30.24,4.3,West,18.4,-,N/A,Rain,Light Rain,260,2011-11-25 14:00:00
2:30 PM,50.0,44.6,82,30.24,6.2,West,15.0,-,N/A,,Partly Cloudy,260,2011-11-25 14:30:00
3:00 PM,50.0,44.6,82,30.24,6.2,WSW,11.5,-,N/A,,Mostly Cloudy,250,2011-11-25 15:00:00
3:30 PM,48.2,42.8,82,30.24,6.2,WSW,11.5,-,N/A,,Scattered Clouds,250,2011-11-25 15:30:00
4:00 PM,48.2,42.8,82,30.24,6.2,WSW,13.8,-,N/A,,Mostly Cloudy,240,2011-11-25 16:00:00
4:30 PM,48.2,41.0,76,30.27,6.2,WSW,15.0,-,N/A,,Mostly Cloudy,250,2011-11-25 16:30:00
5:00 PM,48.2,44.6,87,30.27,6.2,SW,12.7,-,N/A,,Partly Cloudy,230,2011-11-25 17:00:00
5:30 PM,48.2,44.6,87,30.27,6.2,SW,11.5,-,N/A,,Partly Cloudy,220,2011-11-25 17:30:00
6:00 PM,46.4,44.6,93,30.27,6.2,SSW,10.4,-,N/A,,Mostly Cloudy,200,2011-11-25 18:00:00
6:30 PM,48.2,42.8,82,30.27,6.2,SSW,11.5,-,N/A,,Scattered Clouds,200,2011-11-25 18:30:00
7:00 PM,46.4,42.8,87,30.27,6.2,SSW,10.4,-,N/A,,Scattered Clouds,210,2011-11-25 19:00:00
7:30 PM,48.2,44.6,87,30.27,6.2,SSW,10.4,-,N/A,Rain,Light Rain Showers,200,2011-11-25 19:30:00
8:00 PM,48.2,44.6,87,30.24,6.2,South,12.7,-,N/A,,Mostly Cloudy,190,2011-11-25 20:00:00
8:30 PM,48.2,44.6,87,30.24,6.2,SSW,13.8,-,N/A,,Mostly Cloudy,200,2011-11-25 20:30:00
9:00 PM,48.2,44.6,87,30.24,6.2,SSW,12.7,-,N/A,,Mostly Cloudy,200,2011-11-25 21:00:00
9:30 PM,48.2,44.6,87,30.24,6.2,SSW,13.8,-,N/A,,Mostly Cloudy,210,2011-11-25 21:30:00
10:00 PM,48.2,44.6,87,30.24,6.2,SSW,12.7,-,N/A,,Mostly Cloudy,200,2011-11-25 22:00:00
10:30 PM,50.0,44.6,82,30.24,6.2,South,13.8,-,N/A,,Mostly Cloudy,190,2011-11-25 22:30:00
11:00 PM,50.0,46.4,87,30.24,6.2,SSW,13.8,-,N/A,,Light Drizzle,200,2011-11-25 23:00:00
11:30 PM,48.2,46.4,93,30.21,6.2,SW,12.7,-,N/A,,Light Drizzle,220,2011-11-25 23:30:00